Time,TemperatureF,DewpointF,PressureIn,WindDirection,WindDirectionDegrees,WindSpeedMPH,WindSpeedGustMPH,Humidity,HourlyPrecipIn,Conditions,Clouds,dailyrainin,SoftwareType,DateUTC
2013-10-12 00:52:00,50.0,35.0,29.58,WSW,253,11.0,25.0,56,0.00,,,0.02,,2013-10-12 05:52:00,
2013-10-12 07:52:00,47.0,34.0,29.75,West,263,9.0,20.0,60,0.00,,,0.02,,2013-10-12 12:52:00,
2013-10-12 08:11:00,47.0,34.0,29.75,West,259,9.0,19.0,60,0.00,,,0.02,,2013-10-12 13:11:00,
2013-10-12 09:52:00,46.0,33.0,29.81,WSW,246,10.0,18.0,60,0.00,,,0.02,,2013-10-12 14:52:00,
2013-10-12 10:11:00,46.0,33.0,29.82,WSW,239,8.0,17.0,60,0.00,,,0.02,,2013-10-12 15:11:00,
2013-10-12 10:22:00,46.0,33.0,29.83,WSW,254,7.0,18.0,60,0.00,,,0.02,,2013-10-12 15:22:00,
2013-10-12 11:53:00,47.0,33.0,29.88,West,259,8.0,18.0,59,0.00,,,0.02,,2013-10-12 16:53:00,
2013-10-12 13:42:00,51.0,38.0,29.92,West,279,11.0,25.0,60,0.00,,,0.01,,2013-10-12 18:42:00,
2013-10-12 13:52:00,51.0,37.0,29.93,West,264,12.0,23.0,59,0.00,,,0.00,,2013-10-12 18:52:00,
2013-10-12 14:11:00,52.0,38.0,29.93,West,273,11.0,20.0,58,0.00,,,0.00,,2013-10-12 19:11:00,
2013-10-12 14:22:00,52.0,38.0,29.93,WSW,253,13.0,26.0,58,0.00,,,0.00,,2013-10-12 19:22:00,
2013-10-12 14:42:00,52.0,37.0,29.94,SW,236,11.0,19.0,57,0.00,,,0.00,,2013-10-12 19:42:00,
2013-10-12 14:52:00,53.0,36.0,29.95,WSW,242,11.0,21.0,53,0.00,,,0.00,,2013-10-12 19:52:00,
2013-10-12 15:12:00,54.0,35.0,29.95,WSW,244,11.0,22.0,49,0.00,,,0.00,,2013-10-12 20:12:00,
2013-10-12 15:22:00,54.0,36.0,29.96,SW,217,13.0,23.0,50,0.00,,,0.00,,2013-10-12 20:22:00,
2013-10-12 15:42:00,56.0,37.0,29.96,West,270,13.0,25.0,49,0.00,,,0.00,,2013-10-12 20:42:00,
2013-10-12 15:52:00,57.0,37.0,29.97,West,281,10.0,21.0,47,0.00,,,0.00,,2013-10-12 20:52:00,
2013-10-12 16:11:00,57.0,35.0,29.98,SW,229,11.0,27.0,44,0.00,,,0.00,,2013-10-12 21:11:00,
2013-10-12 16:22:00,56.0,36.0,29.98,NW,316,12.0,24.0,46,0.00,,,0.00,,2013-10-12 21:22:00,
2013-10-12 16:43:00,57.0,35.0,29.99,SW,236,10.0,24.0,44,0.00,,,0.00,,2013-10-12 21:43:00,
2013-10-12 16:54:00,57.0,34.0,30.00,NW,309,10.0,25.0,41,0.00,,,0.00,,2013-10-12 21:54:00,
2013-10-12 17:13:00,56.0,36.0,30.01,West,275,9.0,20.0,46,0.00,,,0.00,,2013-10-12 22:13:00,
2013-10-12 17:24:00,56.0,35.0,30.02,West,265,9.0,26.0,45,0.00,,,0.00,,2013-10-12 22:24:00,
2013-10-12 17:54:00,56.0,34.0,30.04,West,259,11.0,20.0,43,0.00,,,0.00,,2013-10-12 22:54:00,
2013-10-12 18:12:00,55.0,33.0,30.03,West,264,9.0,20.0,44,0.00,,,0.00,,2013-10-12 23:12:00,
2013-10-12 18:22:00,55.0,33.0,30.05,West,276,8.0,16.0,44,0.00,,,0.00,,2013-10-12 23:22:00,
2013-10-12 18:42:00,55.0,33.0,30.06,WNW,296,5.0,17.0,44,0.00,,,0.00,,2013-10-12 23:42:00,
2013-10-12 18:52:00,54.0,34.0,30.06,WSW,245,5.0,11.0,47,0.00,,,0.00,,2013-10-12 23:52:00,
2013-10-12 19:12:00,53.0,33.0,30.07,SW,231,4.0,13.0,47,0.00,,,0.00,,2013-10-13 00:12:00,
2013-10-12 19:22:00,51.0,32.0,30.08,WNW,285,4.0,13.0,48,0.00,,,0.00,,2013-10-13 00:22:00,
2013-10-12 19:42:00,49.0,32.0,30.08,WNW,290,2.0,9.0,52,0.00,,,0.00,,2013-10-13 00:42:00,
2013-10-12 19:52:00,48.0,33.0,30.09,WSW,248,2.0,4.0,56,0.00,,,0.00,,2013-10-13 00:52:00,
2013-10-12 20:12:00,47.0,33.0,30.10,WSW,246,3.0,5.0,58,0.00,,,0.00,,2013-10-13 01:12:00,
2013-10-12 20:22:00,46.0,32.0,30.11,WSW,248,3.0,5.0,59,0.00,,,0.00,,2013-10-13 01:22:00,
2013-10-12 20:42:00,46.0,33.0,30.12,WSW,254,3.0,5.0,60,0.00,,,0.00,,2013-10-13 01:42:00,
2013-10-12 20:52:00,45.0,32.0,30.13,West,266,3.0,6.0,61,0.00,,,0.00,,2013-10-13 01:52:00,
2013-10-12 21:12:00,46.0,33.0,30.14,West,265,3.0,6.0,61,0.00,,,0.00,,2013-10-13 02:12:00,
2013-10-12 21:22:00,45.0,32.0,30.15,West,259,2.0,6.0,61,0.00,,,0.00,,2013-10-13 02:22:00,
2013-10-12 21:42:00,45.0,33.0,30.15,West,263,2.0,4.0,62,0.00,,,0.00,,2013-10-13 02:42:00,
2013-10-12 21:52:00,44.0,31.0,30.16,WSW,256,2.0,5.0,61,0.00,,,0.00,,2013-10-13 02:52:00,
2013-10-12 22:12:00,44.0,29.0,30.18,WSW,256,2.0,4.0,55,0.00,,,0.00,,2013-10-13 03:12:00,
2013-10-12 22:22:00,43.0,28.0,30.18,WSW,252,2.0,4.0,56,0.00,,,0.00,,2013-10-13 03:22:00,
2013-10-12 22:54:00,43.0,26.0,30.19,West,271,3.0,5.0,50,0.00,,,0.00,,2013-10-13 03:54:00,
2013-10-12 23:02:00,-999.0,-99.9,30.19,WSW,249,3.0,4.0,-999,-99.99,,,-99.99,,2013-10-13 04:02:00,
2013-10-12 23:14:00,43.0,28.0,30.19,WSW,249,3.0,4.0,54,0.00,,,0.00,,2013-10-13 04:14:00,